| time (UTC) | temp C | wind direction | speed KPH | gust KPH | rain 1hr cm | rain 24hr cm | rain mn cm | humidity % | barometer mb |
| 20260507191811 | 17 | 0.0 | 0.0 | 0.00 | 0.00 | 0.00 | 62 | 990.7 | |
| 20260507185806 | 17 | 0.0 | 0.0 | 0.00 | 0.00 | 0.00 | 61 | 990.4 | |
| 20260507183801 | 18 | 0.0 | 0.0 | 0.00 | 0.00 | 0.00 | 57 | 990.2 | |
| 20260507181757 | 20 | 0.0 | 0.0 | 0.00 | 0.00 | 0.00 | 51 | 989.9 | |
| 20260507175752 | 22 | 0.0 | 0.0 | 0.00 | 0.00 | 0.00 | 46 | 989.8 | |
| 20260507173748 | 21 | 0.0 | 0.0 | 0.00 | 0.00 | 0.00 | 47 | 989.6 | |
| 20260507171743 | 22 | 0.0 | 0.0 | 0.00 | 0.00 | 0.00 | 46 | 989.5 | |
| 20260507165738 | 22 | 0.0 | 0.0 | 0.00 | 0.00 | 0.00 | 46 | 989.4 | |
| 20260507163734 | 23 | 0.0 | 0.0 | 0.00 | 0.00 | 0.00 | 43 | 989.3 | |
| 20260507155725 | 23 | 0.0 | 0.0 | 0.00 | 0.00 | 0.00 | 44 | 989.2 | |
| 20260507153720 | 24 | 0.0 | 0.0 | 0.00 | 0.00 | 0.00 | 43 | 989.3 | |
| 20260507151716 | 22 | 0.0 | 0.0 | 0.00 | 0.00 | 0.00 | 46 | 989.3 | |
| 20260507145711 | 22 | 0.0 | 0.0 | 0.00 | 0.00 | 0.00 | 45 | 989.4 | |
| 20260507141702 | 23 | 0.0 | 0.0 | 0.00 | 0.00 | 0.00 | 44 | 989.5 | |
| 20260507135657 | 24 | 0.0 | 0.0 | 0.00 | 0.00 | 0.00 | 42 | 989.6 | |
| 20260507133607 | 24 | 0.0 | 0.0 | 0.00 | 0.00 | 0.00 | 44 | 989.8 | |
| 20260507131602 | 23 | 0.0 | 0.0 | 0.00 | 0.00 | 0.00 | 44 | 989.9 | |
| 20260507125557 | 23 | 0.0 | 0.0 | 0.00 | 0.00 | 0.00 | 46 | 990.1 | |
| 20260507123553 | 23 | 0.0 | 0.0 | 0.00 | 0.00 | 0.00 | 44 | 990.2 | |
| 20260507121548 | 22 | 0.0 | 0.0 | 0.00 | 0.00 | 0.00 | 47 | 990.3 | |
| 20260507115543 | 22 | 0.0 | 0.0 | 0.00 | 0.00 | 0.00 | 50 | 990.5 | |
| 20260507113538 | 23 | 0.0 | 0.0 | 0.00 | 0.00 | 0.00 | 49 | 990.6 | |
| 20260507111533 | 22 | 0.0 | 0.0 | 0.00 | 0.00 | 0.00 | 49 | 990.7 | |
| 20260507105529 | 22 | 0.0 | 0.0 | 0.00 | 0.00 | 0.00 | 52 | 990.9 | |
| 20260507101519 | 21 | 0.0 | 0.0 | 0.00 | 0.00 | 0.00 | 54 | 991.2 | |
| 20260507091506 | 18 | 0.0 | 0.0 | 0.00 | 0.00 | 0.00 | 59 | 991.3 | |
| 20260507085501 | 19 | 0.0 | 0.0 | 0.00 | 0.00 | 0.00 | 58 | 991.3 | |
| 20260507083457 | 17 | 0.0 | 0.0 | 0.00 | 0.00 | 0.00 | 61 | 991.3 | |
| 20260507081452 | 17 | 0.0 | 0.0 | 0.00 | 0.00 | 0.00 | 61 | 991.2 | |
| 20260507075447 | 17 | 0.0 | 0.0 | 0.00 | 0.00 | 0.00 | 61 | 991.0 | |
| 20260507073443 | 16 | 0.0 | 0.0 | 0.00 | 0.00 | 0.00 | 62 | 990.9 | |
| 20260507071438 | 16 | 0.0 | 0.0 | 0.00 | 0.00 | 0.00 | 64 | 990.7 | |
| 20260507065433 | 16 | 0.0 | 0.0 | 0.00 | 0.00 | 0.00 | 67 | 990.5 | |
| 20260507063429 | 15 | 0.0 | 0.0 | 0.00 | 0.00 | 0.00 | 69 | 990.3 | |
| 20260507061424 | 15 | 0.0 | 0.0 | 0.00 | 0.00 | 0.00 | 71 | 990.3 | |
| 20260507055420 | 14 | 0.0 | 0.0 | 0.00 | 0.00 | 0.00 | 71 | 990.2 | |
| 20260507053415 | 14 | 0.0 | 0.0 | 0.00 | 0.00 | 0.00 | 71 | 990.1 | |
| 20260507051411 | 13 | 0.0 | 0.0 | 0.00 | 0.00 | 0.00 | 73 | 989.9 | |
| 20260507045406 | 13 | 0.0 | 0.0 | 0.00 | 0.00 | 0.00 | 75 | 989.6 | |
| 20260507043401 | 13 | 0.0 | 0.0 | 0.00 | 0.00 | 0.00 | 78 | 989.4 | |
| 20260507041357 | 12 | 0.0 | 0.0 | 0.00 | 0.00 | 0.00 | 79 | 989.2 | |
| 20260507035351 | 12 | 0.0 | 0.0 | 0.00 | 0.00 | 0.00 | 81 | 989.2 | |
| 20260507033347 | 12 | 0.0 | 0.0 | 0.00 | 0.00 | 0.00 | 82 | 989.1 | |
| 20260507025338 | 12 | 0.0 | 0.0 | 0.00 | 0.00 | 0.00 | 81 | 989.3 | |
| 20260507021328 | 12 | 0.0 | 0.0 | 0.00 | 0.00 | 0.00 | 80 | 989.2 | |
| 20260507015324 | 12 | 0.0 | 0.0 | 0.00 | 0.00 | 0.00 | 79 | 989.2 | |
| 20260507013319 | 12 | 0.0 | 0.0 | 0.00 | 0.00 | 0.00 | 78 | 988.9 | |
| 20260507011315 | 12 | 0.0 | 0.0 | 0.00 | 0.00 | 0.00 | 76 | 988.8 | |
| 20260507005310 | 12 | 0.0 | 0.0 | 0.00 | 0.00 | 0.00 | 78 | 988.8 | |
| 20260507003305 | 12 | 0.0 | 0.0 | 0.00 | 0.00 | 0.00 | 77 | 988.8 | |
| 20260507001301 | 12 | 0.0 | 0.0 | 0.00 | 0.00 | 0.00 | 76 | 988.8 | |
| 20260506235256 | 13 | 0.0 | 0.0 | 0.00 | 0.00 | 0.00 | 75 | 988.8 | |
| 20260506233252 | 12 | 0.0 | 0.0 | 0.00 | 0.00 | 0.00 | 75 | 988.7 | |
| 20260506231247 | 13 | 0.0 | 0.0 | 0.00 | 0.00 | 0.00 | 75 | 988.6 | |
| 20260506225243 | 12 | 0.0 | 0.0 | 0.00 | 0.00 | 0.00 | 75 | 988.5 | |
| 20260506223238 | 12 | 0.0 | 0.0 | 0.00 | 0.00 | 0.00 | 74 | 988.6 | |
| 20260506221233 | 12 | 0.0 | 0.0 | 0.00 | 0.00 | 0.00 | 76 | 988.6 | |
| 20260506215229 | 12 | 0.0 | 0.0 | 0.00 | 0.00 | 0.00 | 75 | 988.4 | |
| 20260506213224 | 13 | 0.0 | 0.0 | 0.00 | 0.00 | 0.00 | 74 | 988.3 | |
| 20260506211220 | 13 | 0.0 | 0.0 | 0.00 | 0.00 | 0.00 | 74 | 988.5 | |
| 20260506205215 | 13 | 0.0 | 0.0 | 0.00 | 0.00 | 0.00 | 75 | 988.3 | |
| 20260506203211 | 13 | 0.0 | 0.0 | 0.00 | 0.00 | 0.00 | 75 | 988.2 | |
| 20260506201206 | 12 | 0.0 | 0.0 | 0.00 | 0.00 | 0.00 | 79 | 988.2 | |
| 20260506195202 | 12 | 0.0 | 0.0 | 0.00 | 0.00 | 0.00 | 80 | 988.1 | |
| 20260506193157 | 13 | 0.0 | 0.0 | 0.00 | 0.00 | 0.00 | 78 | 988.0 |